Change the Weather History Date:

Monday, September 30, 2013

  Actual Average (KMSN) Record (KMSN)
Temperature  
Mean Temperature 60 °F 55 °F  
Max Temperature 74 °F 66 °F 88 °F (1971)
Min Temperature 47 °F 44 °F 28 °F (1993)
Degree Days  
Heating Degree Days 4 11  
Month to date heating degree days 173  
Since 1 July heating degree days 208  
Cooling Degree Days 0 1  
Month to date cooling degree days 51  
Year to date cooling degree days 564  
Growing Degree Days 10 (Base 50)    
Moisture  
Dew Point 42 °F    
Average Humidity 51    
Maximum Humidity 96    
Minimum Humidity 25    
Precipitation  
Precipitation 0.00 in 0.08 in 1.72 in (1881)
Month to date precipitation 3.13  
Year to date precipitation 27.95  
Snow  
Snow 0.00 in 0.00 in 0.00 in ()
Month to date snowfall 0.0  
Since 1 July snowfall 0.0  
Since 1 September snowfall 0.0  
Snow Depth -    
Sea Level Pressure  
Sea Level Pressure 29.91 in    
Wind  
Wind Speed 6 mph (SSW)    
Max Wind Speed 18 mph    
Max Gust Speed 23 mph    
Visibility 10 miles    
Events      
T = Trace of Precipitation, MM = Missing Value Source: NWS Daily Summary

Daily Weather History Graph

Daily Weather History Graph

Search for Another Location

Airport or City:

Trip Planner

Search our weather history database for the weather conditions in past years. The results will help you decide how hot, cold, wet, or windy it might be!

Date:

Astronomy

Sep. 30, 2013 Rise Set
Actual Time 6:54 AM CDT 6:40 PM CDT
Civil Twilight 6:26 AM CDT 7:08 PM CDT
Nautical Twilight 5:53 AM CDT 7:41 PM CDT
Astronomical Twilight 5:19 AM CDT 8:15 PM CDT
Moon 2:25 AM CDT (9/30) 4:16 PM CDT (9/30)
Length of Visible Light 12h 42m
Length of Day
11h 45m
Waning Crescent, 19% of the Moon is Illuminated
Sep 30
Waning Crescent
Oct 4
New
Oct 11
First Quarter
Oct 18
Full
Oct 26
Last Quarter

Hourly Weather History & Observations

Time (CDT) Temp. Dew Point Humidity Pressure Visibility Wind Dir Wind Speed Gust Speed Precip Events Conditions
12:15 AM 47.1 °F 46.0 °F 96% 30.00 in 10.0 mi Calm Calm - N/A   Clear
12:35 AM 52.2 °F 43.7 °F 73% 30.00 in 10.0 mi South 4.6 mph - N/A   Clear
12:55 AM 54.3 °F 42.6 °F 65% 29.99 in 10.0 mi SSW 4.6 mph - N/A   Clear
1:15 AM 54.3 °F 42.4 °F 64% 29.99 in 10.0 mi South 4.6 mph - N/A   Clear
1:35 AM 54.5 °F 41.9 °F 62% 29.99 in 10.0 mi Calm Calm - N/A   Clear
1:55 AM 53.4 °F 41.5 °F 64% 29.99 in 10.0 mi Calm Calm - N/A   Clear
2:15 AM 54.0 °F 41.9 °F 64% 29.99 in 10.0 mi SW 5.8 mph - N/A   Clear
2:35 AM 53.6 °F 42.1 °F 65% 29.99 in 10.0 mi SSW 6.9 mph - N/A   Clear
2:55 AM 53.2 °F 41.9 °F 65% 29.98 in 10.0 mi SSW 5.8 mph - N/A   Clear
3:15 AM 52.7 °F 42.1 °F 67% 29.98 in 10.0 mi South 6.9 mph - N/A   Clear
3:35 AM 52.9 °F 41.9 °F 66% 29.97 in 10.0 mi SSW 3.5 mph - N/A   Clear
3:55 AM 53.6 °F 41.7 °F 64% 29.98 in 10.0 mi Calm Calm - N/A   Clear
4:15 AM 53.6 °F 41.5 °F 64% 29.98 in 10.0 mi SSW 6.9 mph - N/A   Clear
4:35 AM 52.7 °F 41.9 °F 67% 29.98 in 10.0 mi SSW 5.8 mph - N/A   Clear
4:55 AM 52.3 °F 41.9 °F 68% 29.98 in 10.0 mi SSW 5.8 mph - N/A   Clear
5:15 AM 51.8 °F 42.1 °F 69% 29.98 in 10.0 mi South 5.8 mph - N/A   Clear
5:35 AM 51.1 °F 42.1 °F 71% 29.98 in 10.0 mi South 3.5 mph - N/A   Clear
5:55 AM 51.4 °F 42.3 °F 71% 29.98 in 10.0 mi South 6.9 mph - N/A   Clear
6:15 AM 50.9 °F 42.3 °F 72% 29.98 in 10.0 mi SSW 4.6 mph - N/A   Clear
6:35 AM 50.2 °F 42.6 °F 75% 29.97 in 10.0 mi SSW 6.9 mph - N/A   Clear
6:55 AM 50.0 °F 42.8 °F 76% 29.97 in 10.0 mi SSW 5.8 mph - N/A   Clear
7:15 AM 50.5 °F 42.8 °F 75% 29.98 in 10.0 mi SSW 6.9 mph - N/A   Clear
7:35 AM 51.8 °F 43.2 °F 72% 29.98 in 10.0 mi SSW 5.8 mph - N/A   Clear
7:55 AM 53.4 °F 43.7 °F 70% 29.97 in 10.0 mi Calm Calm - N/A   Clear
8:15 AM 55.9 °F 43.5 °F 63% 29.98 in 10.0 mi SSW 5.8 mph - N/A   Clear
8:35 AM 58.1 °F 43.2 °F 58% 29.97 in 10.0 mi SSW 9.2 mph - N/A   Clear
8:55 AM 59.0 °F 42.6 °F 55% 29.97 in 10.0 mi SSW 9.2 mph - N/A   Clear
9:15 AM 60.3 °F 43.2 °F 53% 29.96 in 10.0 mi South 8.1 mph - N/A   Clear
9:35 AM 61.7 °F 42.4 °F 49% 29.96 in 10.0 mi SSW 10.4 mph - N/A   Clear
9:55 AM 62.8 °F 41.7 °F 46% 29.95 in 10.0 mi SSE 8.1 mph - N/A   Clear
10:15 AM 62.8 °F 42.8 °F 48% 29.95 in 10.0 mi South 9.2 mph - N/A   Clear
10:35 AM 65.3 °F 43.3 °F 45% 29.94 in 10.0 mi SSW 10.4 mph 16.1 mph N/A   Clear
10:55 AM 65.8 °F 41.5 °F 41% 29.96 in 10.0 mi SSW 13.8 mph - N/A   Clear
11:15 AM 67.3 °F 41.9 °F 40% 29.96 in 10.0 mi SSW 10.4 mph - N/A   Clear
11:35 AM 68.2 °F 40.6 °F 37% 29.95 in 10.0 mi SW 15.0 mph 19.6 mph N/A   Clear
11:55 AM 68.9 °F 41.4 °F 37% 29.94 in 10.0 mi South 10.4 mph 17.3 mph N/A   Clear
12:15 PM 69.6 °F 40.5 °F 35% 29.93 in 10.0 mi South 13.8 mph 18.4 mph N/A   Clear
12:35 PM 69.4 °F 39.9 °F 34% 29.93 in 10.0 mi SSW 15.0 mph 18.4 mph N/A   Clear
12:55 PM 70.5 °F 38.8 °F 32% 29.92 in 10.0 mi South 16.1 mph 21.9 mph N/A   Clear
1:15 PM 71.1 °F 38.5 °F 31% 29.90 in 10.0 mi South 18.4 mph 21.9 mph N/A   Clear
1:35 PM 71.6 °F 37.4 °F 29% 29.90 in 10.0 mi South 15.0 mph 18.4 mph N/A   Clear
1:55 PM 72.3 °F 38.8 °F 30% 29.88 in 10.0 mi South 13.8 mph 20.7 mph N/A   Clear
2:15 PM 73.2 °F 38.7 °F 29% 29.88 in 10.0 mi South 13.8 mph 23.0 mph N/A   Clear
2:35 PM 73.2 °F 38.7 °F 29% 29.87 in 10.0 mi South 13.8 mph 21.9 mph N/A   Clear
2:55 PM 73.4 °F 38.1 °F 28% 29.87 in 10.0 mi South 13.8 mph 19.6 mph N/A   Clear
3:15 PM 73.8 °F 37.6 °F 27% 29.86 in 10.0 mi South 11.5 mph - N/A   Clear
3:35 PM 74.3 °F 37.0 °F 26% 29.85 in 10.0 mi South 13.8 mph 18.4 mph N/A   Clear
3:55 PM 74.7 °F 36.3 °F 25% 29.85 in 10.0 mi South 13.8 mph - N/A   Clear
4:15 PM 74.3 °F 36.0 °F 25% 29.84 in 10.0 mi South 15.0 mph 19.6 mph N/A   Clear
4:35 PM 73.9 °F 36.5 °F 26% 29.83 in 10.0 mi South 17.3 mph 23.0 mph N/A   Clear
4:55 PM 74.3 °F 37.4 °F 26% 29.83 in 10.0 mi SSW 16.1 mph 20.7 mph N/A   Clear
5:15 PM 73.8 °F 38.1 °F 27% 29.83 in 10.0 mi SSW 13.8 mph 19.6 mph N/A   Clear
5:35 PM 73.2 °F 38.8 °F 29% 29.83 in 10.0 mi South 12.7 mph 19.6 mph N/A   Clear
5:55 PM 72.7 °F 40.8 °F 32% 29.83 in 10.0 mi South 10.4 mph - N/A   Clear
6:15 PM 70.9 °F 42.6 °F 36% 29.83 in 10.0 mi South 8.1 mph - N/A   Clear
6:35 PM 69.3 °F 43.5 °F 39% 29.83 in 10.0 mi South 6.9 mph - N/A   Clear
6:55 PM 67.6 °F 44.6 °F 43% 29.83 in 10.0 mi South 5.8 mph - N/A   Clear
7:15 PM 66.2 °F 44.6 °F 46% 29.83 in 10.0 mi SSE 4.6 mph - N/A   Clear
7:35 PM 63.5 °F 45.5 °F 52% 29.82 in 10.0 mi SSE 3.5 mph - N/A   Clear
7:55 PM 62.1 °F 45.9 °F 55% 29.83 in 10.0 mi Calm Calm - N/A   Clear
8:15 PM 62.6 °F 45.9 °F 54% 29.83 in 10.0 mi Calm Calm - N/A   Clear
8:35 PM 62.4 °F 45.3 °F 54% 29.83 in 10.0 mi SSE 3.5 mph - N/A   Clear
8:55 PM 63.3 °F 45.0 °F 51% 29.82 in 10.0 mi South 5.8 mph - N/A   Clear
9:15 PM 64.2 °F 44.4 °F 49% 29.82 in 10.0 mi South 5.8 mph - N/A   Clear
9:35 PM 62.8 °F 43.9 °F 50% 29.83 in 10.0 mi Calm Calm - N/A   Clear
9:55 PM 64.0 °F 44.1 °F 48% 29.83 in 10.0 mi SSW 10.4 mph - N/A   Clear
10:15 PM 63.7 °F 44.6 °F 50% 29.83 in 10.0 mi SW 6.9 mph - N/A   Clear
10:35 PM 63.5 °F 45.0 °F 51% 29.83 in 10.0 mi SW 5.8 mph - N/A   Clear
10:55 PM 63.1 °F 45.5 °F 53% 29.84 in 10.0 mi SW 4.6 mph - N/A   Clear
11:15 PM 62.2 °F 45.7 °F 55% 29.84 in 10.0 mi SSW 5.8 mph - N/A   Clear
11:35 PM 61.3 °F 46.4 °F 58% 29.84 in 10.0 mi SSW 5.8 mph - N/A   Clear
11:55 PM 61.9 °F 47.3 °F 59% 29.84 in 10.0 mi SW 6.9 mph - N/A   Clear